loading
|
Showing default

OPS 6582 (TRANSIT 5E-5), 959

Orbit data source: Space-Track

OPS 6582 (TRANSIT 5E-5), 959 is a payload satellite owned by USN BuWeps (US) in LEO that was launched on Sun, 13 Dec 1964 UTC via a THOR ABLESTAR launch vehicle from the Air Force Western Test Range (AFWTR). Payloads include a variety of satellites, spacecraft, and rockets equipped with specific instruments for various scientific and technological missions. These include communications satellites like Starlink; space stations such as the ISS; scientific satellites like the Hubble; Earth observation satellites from companies like Planet Labs, Umbra, and HawkEye 360; GPS; miniature CubeSats for education and research; and military/defense satellites.

Loading next visibility...
Loading greatness...
OPS 6582 (TRANSIT 5E-5) details
Identifier
959, 1964-083C
Orbit
LEO
Last TLE update11 hours ago
Origin
Flag of USUSN BuWeps (US)
ManufacturerAPL
Mission statusUnknown
MissionCivil Astronomy
Bus & MotorTRANSIT 5, Unknown motor
Mass77 kg wet, 77 kg dry
Launch date (UTC)
1964-12-13 (60 years ago)
Launch vehicle
THOR ABLESTAR
Launch site
Air Force Western Test Range (AFWTR)
Object type
Payload
Rocket body
Debris
Radar Cross Section1.6 m², Large (>1 m²)

Expand to show TLE details & history

TLE from 11 hours ago
0 OPS 6582 (TRANSIT 5E-5)
1 00959U 64083C   24251.55936241  .00000691  00000-0  87637-3 0  9993
2 00959  90.0014 186.9299 0044211  56.5436 117.0941 13.62149725962026
Epoch: 2024-09-07T13:25Z
Definitive object data (Epoch: 2024-09-07T13:25:28.912Z)
Latitude5.83185°
Longitude178.44377°
Altitude1,045.324 km
Speed7.322 km/s
True Right ascension00h 27m 43s
True Declination5° 47' 55"
Sunlit
Object was in full shadow at TLE epoch
Predictive object data (real-time)
Latitude-68.26203°
Longitude178.4402°
Altitude1,085.596 km
Speed7.293 km/s
Apparent Right ascension03h 06m 55s
Apparent Declination-58° 37' 49"
Sunlit
Object is in daylight
Predictive observer data (real-time)
Local Sidereal Time16:31:51
Azimuth151.243° SSE
Elevation-66.93°
Doppler factor1
Orbital elements
Apogee1,057.651 km
Perigee992.192 km
Semi-major axis7,403.059 km
Eccentricity0.0044211
Inclination90.0014°
RAAN186.9299°
Arg. of periapsis56.5436°
True anomaly117.54399°
Mean anomaly117.0941°
Eccentric anomaly117.31916°
Mean motion3.40743 °/min
BSTAR0.00087637
Period105.65 mins
No data available

OPS 6582 (TRANSIT 5E-5) Visibility forecast

Observer location: 39.9160978°, -105.1181434

OPS 6582 (TRANSIT 5E-5) is not visible in the next 10 days
Span
Click to sort rows by Start time (UTC) header in descending order
Start Az.
Max El. time (UTC)
Max El. Az.
Max El.
End time (UTC)
End Az.